[[{"header":{"parameterUnit":"m.s-1","parameterCategory":1,"la1":30.2991,"la2":30.254,"lo1":-89.0895,"lo2":-89.0444,"dy":0.0017,"dx":0.0017,"nx":28,"ny":28,"refTime":"2025-03-07T09:00:00:Z","depth":0,"parameterNumber":2,"parameterNumberName":"U-component_of_WINDS"},"data":[0,0,0,0,0,0,0,0,0,0,0,0,0,0,0,0,0,0,0,0,0,0,0,0,0,0,0,0,0,0,0,0,0,0,0,0,0,0,0,0,0,0,0,0,0,0,0,0,0,0,0,0,0,0,0,0,0,0,-1.0389,-1.0388,0,-1.0357,-1.0357,-1.0357,-1.0335,-1.0335,-1.0335,-1.0335,-1.0302,-1.0301,-1.03,0,0,0,0,0,0,0,0,0,0,0,0,0,-1.043,-1.0429,-1.0389,-1.0388,-1.0388,-1.0357,-1.0357,-1.0356,-1.0335,-1.0335,-1.0335,-1.0334,-1.0302,-1.0301,-1.03,0,0,0,0,0,0,0,0,0,0,0,0,0,-1.0406,-1.0429,-1.0389,-1.0374,-1.0372,-1.0357,-1.0357,-1.0356,-1.0335,-1.0335,-1.0335,-1.0334,-1.0302,-1.0301,-1.03,-1.0298,0,0,-1.0297,-1.0296,0,0,0,0,0,0,0,0,-1.0408,-1.0405,-1.0376,-1.0375,-1.0373,-1.035,-1.0359,-1.0337,-1.0335,-1.0349,-1.0335,-1.0334,-1.0318,-1.0315,-1.031,-1.0296,-1.0295,-1.0296,-1.0296,-1.0295,-1.0295,0,0,0,0,0,0,0,-1.0409,-1.0406,-1.0376,-1.0376,-1.0374,-1.0368,-1.0365,-1.0355,-1.0335,-1.0348,-1.0346,-1.0343,-1.0317,-1.0311,-1.0309,-1.0294,-1.0296,-1.0295,-1.0295,-1.0294,-1.0276,-1.0277,0,0,0,0,0,0,-1.0413,-1.0408,-1.0377,-1.0375,-1.039,-1.0368,-1.0364,-1.0357,-1.0335,-1.0332,-1.0343,-1.0342,-1.0313,-1.031,-1.0308,-1.0303,-1.0295,-1.0294,-1.0294,-1.0276,-1.0276,-1.0277,0,0,0,0,0,0,-1.0414,-1.0411,-1.0379,-1.0391,-1.0386,-1.0367,-1.036,-1.0357,-1.0351,-1.0331,-1.0328,-1.0341,-1.0313,-1.0309,-1.03,-1.0302,-1.0294,-1.0293,-1.0276,-1.0276,-1.0277,-1.0294,0,0,0,0,0,0,-1.0416,-1.0411,-1.0411,-1.0391,-1.0386,-1.0372,-1.036,-1.0356,-1.0349,-1.0348,-1.0328,-1.0325,-1.0312,-1.0302,-1.0299,-1.03,-1.0292,-1.0276,-1.0276,-1.0276,-1.0293,-1.0295,-1.0296,0,0,0,0,0,-1.0417,-1.0417,-1.0411,-1.0407,-1.0384,-1.0372,-1.0369,-1.0354,-1.035,-1.0348,-1.0336,-1.0326,-1.0302,-1.0301,-1.0298,-1.0298,-1.0276,-1.0276,-1.0276,-1.0293,-1.0295,-1.0296,0,0,0,0,0,0,-1.0437,-1.0414,-1.0407,-1.04,-1.0388,-1.0368,-1.0366,-1.0357,-1.0346,-1.0345,-1.0327,-1.0323,-1.0316,-1.0306,-1.0306,-1.0295,-1.0288,-1.0287,-1.0301,-1.0303,-1.0304,-1.0306,-1.0291,0,0,0,0,0,-1.044,-1.0432,-1.0413,-1.0409,-1.0403,-1.0386,-1.038,-1.037,-1.0357,-1.0351,-1.0338,-1.0325,-1.0315,-1.0308,-1.0298,-1.0292,-1.0287,-1.0291,-1.0292,-1.0294,-1.0293,-1.0289,-1.029,-1.0278,-1.0278,-1.0278,0,0,-1.0447,-1.0434,-1.043,-1.0412,-1.0402,-1.0394,-1.0382,-1.0374,-1.0367,-1.035,-1.034,-1.033,-1.0315,-1.0307,-1.0303,-1.0299,-1.0296,-1.0294,-1.0295,-1.0294,-1.0289,-1.0291,-1.0292,-1.0278,-1.0278,-1.0278,0,0,-1.0456,-1.0446,-1.0441,-1.043,-1.0415,-1.0403,-1.0402,-1.0384,-1.0376,-1.0367,-1.0353,-1.0345,-1.0328,-1.0318,-1.031,-1.0315,-1.0305,-1.0312,-1.0319,-1.0315,-1.0316,-1.0317,-1.0318,-1.0318,-1.0312,-1.0312,-1.0312,0,-1.0467,-1.0454,-1.0439,-1.0432,-1.0424,-1.0409,-1.0403,-1.0394,-1.0376,-1.037,-1.0366,-1.0344,-1.0333,-1.0322,-1.0323,-1.0318,-1.0315,-1.0313,-1.0317,-1.0318,-1.0318,-1.0319,-1.0319,-1.0313,-1.0313,-1.0312,-1.0312,0,-1.0468,-1.0459,-1.0457,-1.044,-1.0432,-1.0426,-1.0409,-1.0403,-1.0394,-1.0383,-1.0373,-1.0359,-1.0345,-1.0342,-1.0333,-1.033,-1.0328,-1.0321,-1.0313,-1.0321,-1.0321,-1.0321,-1.0314,-1.0314,-1.0313,-1.0313,0,0,-1.0487,-1.0462,-1.0461,-1.0453,-1.0434,-1.0427,-1.042,-1.0407,-1.0402,-1.039,-1.0383,-1.0368,-1.0362,-1.0353,-1.0343,-1.0339,-1.0343,-1.0333,-1.0332,-1.0334,-1.0338,-1.0343,-1.0343,-1.0337,-1.0337,-1.0337,-1.0339,0,-1.0492,-1.0479,-1.0465,-1.0456,-1.0448,-1.0433,-1.0426,-1.0414,-1.0404,-1.0395,-1.0383,-1.0373,-1.0366,-1.036,-1.0356,-1.0343,-1.0343,-1.0343,-1.0329,-1.0329,-1.0333,-1.0344,-1.0349,-1.0352,-1.0339,-1.0339,-1.0339,0,-1.0496,-1.0485,-1.0475,-1.0457,-1.0453,-1.0448,-1.0434,-1.0426,-1.0412,-1.0404,-1.0395,-1.0384,-1.0375,-1.0369,-1.0357,-1.0357,-1.035,-1.0343,-1.0343,-1.034,-1.0334,-1.0341,-1.0352,-1.0352,-1.0339,-1.0339,-1.0339,0,-1.051,-1.0493,-1.0484,-1.0478,-1.0457,-1.0453,-1.0445,-1.043,-1.0423,-1.0411,-1.0406,-1.0393,-1.0386,-1.0376,-1.0362,-1.0359,-1.0351,-1.0344,-1.0344,-1.0344,-1.0342,-1.0342,-1.0352,-1.0339,-1.0339,-1.0339,-1.0339,0,-1.0517,-1.0511,-1.049,-1.0485,-1.0478,-1.0463,-1.0456,-1.0446,-1.0434,-1.0426,-1.0413,-1.0406,-1.0387,-1.0378,-1.0367,-1.0358,-1.0355,-1.0348,-1.0345,-1.0349,-1.035,-1.0344,-1.0343,-1.034,-1.034,-1.034,-1.034,0,-1.0531,-1.0517,-1.0507,-1.0488,-1.0483,-1.0479,-1.0462,-1.0457,-1.0446,-1.0436,-1.0433,-1.0415,-1.0404,-1.0389,-1.0373,-1.0365,-1.0357,-1.0353,-1.0362,-1.036,-1.036,-1.036,-1.0366,-1.0366,-1.0354,-1.0355,-1.0355,0,-1.0536,-1.0531,-1.0512,-1.0506,-1.0497,-1.0488,-1.048,-1.0465,-1.0457,-1.0441,-1.0437,-1.0425,-1.0414,-1.0396,-1.0381,-1.0369,-1.0364,-1.0367,-1.0362,-1.0365,-1.0363,-1.0363,-1.0362,-1.0368,-1.0368,-1.0368,-1.0368,0,-1.0545,-1.0538,-1.0528,-1.0515,-1.0507,-1.0496,-1.0485,-1.048,-1.0463,-1.0455,-1.0443,-1.0435,-1.0418,-1.0406,-1.0391,-1.0382,-1.0372,-1.037,-1.0369,-1.0373,-1.0378,-1.0374,-1.0364,-1.037,-1.037,-1.0369,-1.0369,-1.0369,-1.0554,-1.0549,-1.0535,-1.0524,-1.0513,-1.0503,-1.0497,-1.0485,-1.0475,-1.046,-1.0452,-1.044,-1.0426,-1.0405,-1.0396,-1.0386,-1.0383,-1.0382,-1.0381,-1.0381,-1.0382,-1.038,-1.0384,-1.0384,-1.0384,-1.0384,-1.0384,0,-1.0562,-1.0552,-1.0542,-1.0527,-1.0518,-1.051,-1.0497,-1.049,-1.048,-1.0468,-1.0457,-1.0443,-1.0431,-1.0416,-1.0403,-1.0398,-1.0393,-1.0395,-1.0395,-1.0392,-1.0387,-1.0388,-1.0399,-1.0399,-1.0399,-1.0399,-1.0399,-1.0399,-1.0565,-1.0556,-1.0548,-1.0533,-1.0523,-1.0512,-1.0505,-1.0495,-1.0485,-1.047,-1.046,-1.0451,-1.0437,-1.0423,-1.0411,-1.0407,-1.0402,-1.0405,-1.04,-1.0394,-1.0393,-1.0392,-1.0393,-1.0405,-1.0405,-1.0406,-1.0406,-1.0406]},{"header":{"parameterUnit":"m.s-1","parameterCategory":1,"la1":30.2991,"la2":30.254,"lo1":-89.0895,"lo2":-89.0444,"dy":0.0017,"dx":0.0017,"nx":28,"ny":28,"refTime":"2025-03-07T09:00:00:Z","depth":0,"parameterNumber":3,"parameterNumberName":"V-component_of_WINDS"},"data":[0,0,0,0,0,0,0,0,0,0,0,0,0,0,0,0,0,0,0,0,0,0,0,0,0,0,0,0,0,0,0,0,0,0,0,0,0,0,0,0,0,0,0,0,0,0,0,0,0,0,0,0,0,0,0,0,0,0,3.6019,3.6019,0,3.6047,3.6047,3.6048,3.6111,3.6112,3.6114,3.6115,3.6138,3.6138,3.6137,0,0,0,0,0,0,0,0,0,0,0,0,0,3.6019,3.6018,3.6019,3.6019,3.602,3.6047,3.6047,3.6048,3.6111,3.6112,3.6114,3.6115,3.6139,3.6138,3.6137,0,0,0,0,0,0,0,0,0,0,0,0,0,3.603,3.6018,3.6019,3.6055,3.6058,3.6047,3.6047,3.6048,3.611,3.6112,3.6114,3.6116,3.6139,3.6138,3.6137,3.6092,0,0,3.6134,3.6134,0,0,0,0,0,0,0,0,3.6029,3.603,3.6049,3.6052,3.6056,3.6078,3.6056,3.6062,3.611,3.609,3.6115,3.6117,3.6116,3.6117,3.6118,3.6093,3.6094,3.6134,3.6134,3.6133,3.6133,0,0,0,0,0,0,0,3.6028,3.6029,3.603,3.6049,3.6054,3.6069,3.6072,3.6057,3.6092,3.6092,3.6097,3.61,3.6118,3.6119,3.6119,3.6094,3.6134,3.6133,3.6133,3.6132,3.6038,3.6036,0,0,0,0,0,0,3.6023,3.6028,3.6029,3.6031,3.6047,3.6067,3.6071,3.6069,3.6092,3.6098,3.6098,3.6102,3.6119,3.612,3.612,3.6072,3.6133,3.6132,3.6132,3.604,3.6038,3.6036,0,0,0,0,0,0,3.6022,3.6022,3.6028,3.6031,3.6033,3.6065,3.6061,3.6068,3.6069,3.6096,3.6103,3.6092,3.6121,3.6121,3.61,3.6073,3.6132,3.6131,3.6042,3.6039,3.6037,3.5973,0,0,0,0,0,0,3.6022,3.6022,3.6005,3.603,3.6032,3.6007,3.606,3.6067,3.6067,3.6074,3.6093,3.6097,3.6122,3.6101,3.6099,3.6073,3.613,3.6045,3.6041,3.6038,3.5977,3.5968,3.596,0,0,0,0,0,3.6022,3.5984,3.6004,3.6004,3.6012,3.6006,3.6007,3.6038,3.6065,3.6049,3.6067,3.6097,3.6077,3.6098,3.6096,3.607,3.6047,3.6042,3.6038,3.5981,3.597,3.596,0,0,0,0,0,0,3.5952,3.5988,3.601,3.5979,3.5989,3.6016,3.5996,3.6024,3.6025,3.6031,3.6068,3.6072,3.6046,3.6055,3.6079,3.603,3.6067,3.6062,3.6024,3.6014,3.6005,3.6004,3.613,0,0,0,0,0,3.5933,3.5926,3.5957,3.5927,3.5931,3.5963,3.5961,3.5985,3.5996,3.6,3.6017,3.6026,3.6022,3.6018,3.6016,3.5979,3.5986,3.5961,3.5952,3.5945,3.594,3.5925,3.5916,3.6021,3.6021,3.6021,0,0,3.5894,3.5913,3.5905,3.5914,3.5924,3.5916,3.5966,3.5954,3.5949,3.5998,3.598,3.5992,3.6005,3.5977,3.5965,3.5984,3.5913,3.5939,3.5933,3.5933,3.592,3.591,3.5901,3.6018,3.6019,3.6019,0,0,3.5818,3.5831,3.5809,3.582,3.5837,3.5859,3.5854,3.5878,3.5889,3.5872,3.591,3.5904,3.5895,3.5904,3.5907,3.584,3.5868,3.5838,3.5793,3.5778,3.577,3.5762,3.5741,3.5733,3.5833,3.5833,3.5833,0,3.5767,3.5757,3.5794,3.5781,3.5785,3.5832,3.5811,3.5819,3.5833,3.5834,3.5856,3.585,3.5861,3.5838,3.5822,3.5822,3.5818,3.5836,3.5768,3.5761,3.5755,3.5735,3.5727,3.583,3.583,3.583,3.5831,0,3.5694,3.5687,3.5668,3.5684,3.5685,3.5668,3.5702,3.5699,3.5723,3.5743,3.5727,3.5743,3.5747,3.5743,3.5764,3.5723,3.5735,3.5762,3.58,3.5741,3.5723,3.5715,3.5824,3.5826,3.5827,3.5828,0,0,3.5573,3.5614,3.5606,3.5616,3.564,3.5635,3.5621,3.5627,3.5625,3.5633,3.5624,3.5618,3.5644,3.5648,3.5672,3.5658,3.5608,3.5687,3.5688,3.5674,3.5567,3.5548,3.5538,3.5627,3.5626,3.5625,3.5567,0,3.5504,3.5485,3.5519,3.5491,3.5486,3.5533,3.5522,3.5535,3.5554,3.5553,3.5573,3.557,3.5604,3.5607,3.5596,3.5616,3.5587,3.5621,3.5619,3.5618,3.5616,3.5528,3.5507,3.5451,3.556,3.5558,3.5557,0,3.5421,3.543,3.5402,3.5433,3.5432,3.5421,3.5431,3.5429,3.5446,3.5462,3.5468,3.5498,3.5487,3.5524,3.551,3.5532,3.5534,3.5544,3.5543,3.5545,3.5585,3.5529,3.5434,3.5426,3.5546,3.5547,3.5548,0,3.5338,3.5343,3.5329,3.5335,3.5369,3.5361,3.5374,3.5394,3.5397,3.5405,3.5408,3.5414,3.5418,3.5423,3.5454,3.5477,3.5437,3.5476,3.545,3.545,3.544,3.544,3.5345,3.5438,3.5438,3.5438,3.5439,0,3.5259,3.524,3.5293,3.5284,3.5266,3.5306,3.5286,3.5304,3.5322,3.5318,3.5357,3.5352,3.5393,3.5393,3.5417,3.5404,3.5404,3.5417,3.5424,3.5414,3.5413,3.5416,3.5421,3.5436,3.5437,3.5437,3.5438,0,3.5163,3.5197,3.5185,3.522,3.5228,3.5214,3.5243,3.5237,3.526,3.5254,3.5255,3.5291,3.5293,3.5325,3.5332,3.5349,3.5326,3.5339,3.5321,3.5326,3.53,3.5303,3.5205,3.5195,3.5292,3.5291,3.529,0,3.5111,3.5099,3.5134,3.5135,3.5148,3.5148,3.5153,3.5193,3.5196,3.5217,3.5208,3.5214,3.5221,3.5222,3.5248,3.5256,3.527,3.5236,3.5271,3.5264,3.5273,3.5274,3.5274,3.5228,3.5227,3.5226,3.5225,0,3.5015,3.5034,3.5039,3.5053,3.5058,3.5069,3.5083,3.5081,3.5125,3.5127,3.5131,3.5137,3.5147,3.5153,3.5166,3.5179,3.521,3.5214,3.5209,3.5199,3.519,3.5198,3.5303,3.5216,3.5217,3.5217,3.5218,3.5218,3.4941,3.4934,3.4959,3.4965,3.4981,3.4994,3.4991,3.5015,3.502,3.5034,3.5057,3.5058,3.5079,3.51,3.5111,3.5113,3.5131,3.5123,3.5121,3.5119,3.5115,3.5189,3.5115,3.5116,3.5116,3.5116,3.5116,0,3.4849,3.4869,3.4874,3.4895,3.49,3.4931,3.4949,3.4951,3.4953,3.4971,3.4978,3.4985,3.4992,3.5021,3.5031,3.5027,3.5042,3.5029,3.503,3.5033,3.5097,3.5102,3.5017,3.5017,3.5017,3.5017,3.5017,3.5017,3.4802,3.4793,3.4815,3.4816,3.4835,3.4839,3.4847,3.486,3.4875,3.4882,3.4889,3.4908,3.4931,3.4945,3.4953,3.4961,3.4964,3.4947,3.496,3.5019,3.5028,3.5037,3.5042,3.4947,3.4946,3.4896,3.4896,3.4896]}]]